Weather History for Belleville, IL

Change the Weather History Date:

Tuesday, November 13, 2012

  Actual Average Record
Temperature  
Mean Temperature 36 °F -  
Max Temperature 47 °F 56 °F 82 °F (1955)
Min Temperature 26 °F 33 °F 9 °F (1986)
Degree Days  
Heating Degree Days 28    
Moisture  
Dew Point 25 °F    
Average Humidity 67    
Maximum Humidity 93    
Minimum Humidity 34    
Precipitation  
Precipitation 0.00 in - - ()
Sea Level Pressure  
Sea Level Pressure 30.50 in    
Wind  
Wind Speed 1 mph (ENE)    
Max Wind Speed 6 mph    
Max Gust Speed -    
Visibility 10 miles    
Events      
Averages and records for this station are not official NWS values.
T = Trace of Precipitation, MM = Missing Value Source: NWS Daily Summary

Daily Weather History Graph

Daily Weather History Graph

Search for Another Location

Airport:

Trip Planner

Search our weather history database for the weather conditions in past years. The results will help you decide how hot, cold, wet, or windy it might be!

Date:

Astronomy

Nov. 13, 2012 Rise Set
Actual Time 6:39 AM CST 4:47 PM CST
Civil Twilight 6:11 AM CST 5:15 PM CST
Nautical Twilight 5:39 AM CST 5:47 PM CST
Astronomical Twilight 5:08 AM CST 6:18 PM CST
Moon 6:17 AM CST (11/13) 4:40 PM CST (11/13)
Length of Visible Light 11h 04m
Length of Day
10h 07m
Waning Crescent, 0% of the Moon is Illuminated
Nov 13
Waning Crescent
Nov 13
New
Nov 20
First Quarter
Nov 28
Full
Dec 6
Last Quarter

Hourly Weather History & Observations

Time (CST) Temp. Windchill Dew Point Humidity Pressure Visibility Wind Dir Wind Speed Gust Speed Precip Events Conditions
12:55 AM 29.3 °F - 25.0 °F 84% 30.46 in 10.0 mi Calm Calm - N/A   Clear
1:55 AM 28.0 °F - 24.4 °F 86% 30.48 in 10.0 mi Calm Calm - N/A   Clear
2:55 AM 28.0 °F - 25.0 °F 88% 30.48 in 10.0 mi Calm Calm - N/A   Clear
3:55 AM 27.0 °F - 23.9 °F 88% 30.49 in 10.0 mi Calm Calm - N/A   Clear
4:55 AM 27.0 °F - 24.1 °F 89% 30.51 in 10.0 mi Calm Calm - N/A   Clear
5:55 AM 26.4 °F - 23.7 °F 90% 30.52 in 10.0 mi Calm Calm - N/A   Clear
6:55 AM 26.6 °F - 24.8 °F 93% 30.53 in 10.0 mi Calm Calm - N/A   Clear
7:55 AM 29.3 °F - 26.8 °F 90% 30.56 in 7.0 mi Calm Calm - N/A   Clear
8:55 AM 38.1 °F 35.7 °F 27.9 °F 67% 30.56 in 7.0 mi North 3.5 mph - N/A   Clear
9:55 AM 41.5 °F - 24.3 °F 50% 30.56 in 10.0 mi Calm Calm - N/A   Clear
10:55 AM 43.2 °F - 21.2 °F 42% 30.55 in 10.0 mi Calm Calm - N/A   Clear
11:55 AM 46.2 °F - 22.5 °F 39% 30.53 in 10.0 mi Calm Calm - N/A   Clear
12:55 PM 47.1 °F - 19.9 °F 34% 30.50 in 10.0 mi Calm Calm - N/A   Clear
1:55 PM 47.7 °F - 20.7 °F 34% 30.48 in 10.0 mi Calm Calm - N/A   Clear
2:55 PM 47.3 °F - 23.7 °F 40% 30.47 in 10.0 mi ENE 4.6 mph - N/A   Clear
3:55 PM 45.9 °F 42.9 °F 23.4 °F 41% 30.48 in 10.0 mi East 5.8 mph - N/A   Clear
4:55 PM 42.1 °F 40.2 °F 21.9 °F 45% 30.47 in 10.0 mi East 3.5 mph - N/A   Clear
5:55 PM 39.4 °F 37.2 °F 26.6 °F 60% 30.48 in 10.0 mi East 3.5 mph - N/A   Clear
6:55 PM 38.3 °F 35.9 °F 24.3 °F 57% 30.48 in 10.0 mi East 3.5 mph - N/A   Clear
7:55 PM 36.3 °F - 26.6 °F 68% 30.49 in 10.0 mi Calm Calm - N/A   Clear
8:55 PM 33.4 °F - 26.4 °F 75% 30.50 in 10.0 mi Calm Calm - N/A   Clear
9:55 PM 32.9 °F - 27.1 °F 79% 30.51 in 10.0 mi Calm Calm - N/A   Clear
10:55 PM 32.0 °F - 27.3 °F 83% 30.49 in 10.0 mi Calm Calm - N/A   Clear
11:55 PM 31.6 °F - 27.1 °F 83% 30.48 in 10.0 mi Calm Calm - N/A   Clear